Flag for U.S.A. Weather past 2 weeks in Sheboygan, Wisconsin, U.S.A.

Now
39 °F

Passing clouds.


Feels Like: 31 °F
Forecast: 35 / 50 °F
Wind: 14 mph from West

Location: Sheboygan County Memorial Airport

Current Time: Mar 29, 2015 at 11:59:52 PM

Latest Report: Mar 29, 2015 at 10:53 PM


Visibility: 10 mi

Pressure: 29.85 "Hg

Humidity: 70%

Dew point: 30 °F

Location of SheboyganLocation

Historic Weather in Sheboygan — Graph

°F

Sheboygan temperature yesterday

Maximum temperature yesterday: 36 °F (at 2:53 PM)
Minimum temperature yesterday: 15 °F (at 1:53 AM)
Average temperature yesterday: 25 °F

Past Weeks' High & Low Weather Summary

 TemperatureHumidityPressure
High64 °F (Mar 16, 11:53 AM)96% (Mar 25, 6:53 AM)30.41 "Hg (Mar 25, 6:53 AM)
Low15 °F (Mar 28, 1:53 AM)28% (Mar 17, 3:53 PM)29.63 "Hg (Mar 29, 4:53 PM)
Average34 °F65%30.14 "Hg
* Reported Mar 14 9:53 PM — Mar 29 9:53 PM, Sheboygan, Weather by CustomWeather, © 2015

Note: Actual official high and low records may vary slightly from our data, if they occured in-between our weather recording intervals... More about our weather records

Advertising

Sheboygan weather history for previous 24 hours

 ConditionsComfort  
Time TempWeatherWind HumidityBarometerVisibility
9:53 PM
Sun, Mar 29
40 °FPassing clouds.17 mph70%29.82 "Hg10 mi
8:53 PM41 °FOvercast.14 mph74%29.78 "Hg10 mi
7:53 PM41 °FMostly cloudy.17 mph74%29.73 "Hg10 mi
6:53 PM41 °FCloudy.18 mph80%29.68 "Hg10 mi
5:53 PM39 °FFog.17 mph89%29.64 "Hg5 mi
4:53 PM37 °FLight rain. Fog.17 mph89%29.63 "Hg3 mi
3:53 PM37 °FOvercast.24 mph82%29.64 "Hg10 mi
2:53 PM35 °FOvercast.23 mph85%29.69 "Hg10 mi
1:53 PM34 °FOvercast.25 mph88%29.72 "Hg8 mi
12:53 PM33 °FLight snow. Fog.21 mph88%29.78 "Hg1 mi
11:53 AM34 °FMostly cloudy.24 mph76%29.80 "Hg10 mi
10:53 AM34 °FLight rain. Mostly cloudy.21 mph70%29.86 "Hg10 mi
9:53 AM36 °FPassing clouds.23 mph50%29.90 "Hg10 mi
8:53 AM34 °FSunny.21 mph54%29.98 "Hg10 mi
7:53 AM31 °FSunny.18 mph57%30.01 "Hg10 mi
6:53 AM30 °FClear.14 mph56%30.07 "Hg10 mi
5:53 AM28 °FClear.13 mph61%30.07 "Hg10 mi
4:53 AM28 °FClear.12 mph58%30.09 "Hg10 mi
3:53 AM28 °FClear.12 mph58%30.11 "Hg10 mi
2:53 AM27 °FClear.13 mph61%30.14 "Hg10 mi
1:53 AM25 °FClear.10 mph66%30.18 "Hg10 mi
12:53 AM22 °FClear.N/A75%30.22 "Hg10 mi
11:53 PM
Sat, Mar 28
22 °FClear.6 mph78%30.24 "Hg10 mi
Weather by CustomWeather, © 2015

See weather overviewHow to use our weather pages